Location: Newark
(37.9800°N, 91.3000°W)
Time: 22:49:36
(UTC+00:00)

Envisat - Pass Details

Date: 30 October 2019
Orbit: 764 x 766 km, 98.1° (Epoch: 17 November)

Event Time Altitude Azimuth Distance (km) Brightness Sun altitude
Rises 11:45:12 0° 32° (NNE) 3,236 6.6 -9.1°
Reaches altitude 10° 11:48:25 10° 54° (NE) 2,304 6.1 -8.5°
Maximum altitude 11:51:30 16° 92° (E) 1,911 6.5 -7.9°
Drops below altitude 10° 11:54:34 10° 130° (SE) 2,294 6.6 -7.3°
Sets 11:57:45 0° 151° (SSE) 3,215 6.9 -6.7°
